Location: Rochester
(43.1610°N, 77.6109°W)
Time: 02:50:59
(UTC-05:00)

BlueWalker 3 - Pass Details

Date: 11 October 2023
Orbit: 489 x 503 km, 53.2° (Epoch: 04 December)

Event Time Altitude Azimuth Distance (km) Brightness Sun altitude
Rises 20:35:58 0° 250° (WSW) 2,553 6.5 -22.9°
Reaches altitude 10° 20:38:12 10° 257° (WSW) 1,675 5.5 -23.3°
Maximum altitude 20:41:50 44° 331° (NNW) 683 2.8 -23.9°
Enters shadow 20:42:00 44° 339° (NNW) 686 2.7 -23.9°
